Time,TemperatureF,DewpointF,PressureIn,WindDirection,WindDirectionDegrees,WindSpeedMPH,WindSpeedGustMPH,Humidity,HourlyPrecipIn,Conditions,Clouds,dailyrainin,SoftwareType,DateUTC
2013-05-28 00:01:00,70.3,60.4,30.00,SSE,158,0.0,0.0,71,0.00,,,0.00,WUHU216HW,2013-05-28 04:01:00,
2013-05-28 00:06:00,70.3,60.4,29.99,South,180,0.0,0.0,71,0.00,,,0.00,WUHU216HW,2013-05-28 04:06:00,
2013-05-28 00:11:00,70.3,60.8,29.99,South,180,0.0,0.0,72,0.00,,,0.00,WUHU216HW,2013-05-28 04:11:00,
2013-05-28 00:16:00,70.3,60.8,30.00,South,180,0.0,0.0,72,0.00,,,0.00,WUHU216HW,2013-05-28 04:16:00,
2013-05-28 00:21:00,70.3,61.2,30.00,South,180,0.0,0.0,73,0.00,,,0.00,WUHU216HW,2013-05-28 04:21:00,
2013-05-28 00:26:00,70.1,61.0,30.00,SSE,158,0.0,0.0,73,0.00,,,0.00,WUHU216HW,2013-05-28 04:26:00,
2013-05-28 00:31:00,70.1,61.4,30.00,South,180,0.0,0.0,74,0.00,,,0.00,WUHU216HW,2013-05-28 04:31:00,
2013-05-28 00:36:00,70.1,61.4,29.99,SE,135,0.0,0.0,74,0.00,,,0.00,WUHU216HW,2013-05-28 04:36:00,
2013-05-28 00:41:00,70.1,61.7,29.99,SSE,158,0.0,0.0,75,0.00,,,0.00,WUHU216HW,2013-05-28 04:41:00,
2013-05-28 00:46:00,69.9,61.6,30.00,SSE,158,0.0,0.0,75,0.00,,,0.00,WUHU216HW,2013-05-28 04:46:00,
2013-05-28 00:51:00,69.9,61.6,30.00,SE,135,0.0,0.0,75,0.00,,,0.00,WUHU216HW,2013-05-28 04:51:00,
2013-05-28 00:56:00,69.9,61.6,30.00,SSW,203,0.0,0.0,75,0.00,,,0.00,WUHU216HW,2013-05-28 04:56:00,
2013-05-28 01:01:00,69.9,61.6,30.00,South,180,0.0,0.0,75,0.00,,,0.00,WUHU216HW,2013-05-28 05:01:00,
2013-05-28 01:07:00,69.9,61.6,30.00,South,180,0.0,0.0,75,0.00,,,0.00,WUHU216HW,2013-05-28 05:07:00,
2013-05-28 01:12:00,69.8,61.8,30.00,South,180,0.0,0.0,76,0.00,,,0.00,WUHU216HW,2013-05-28 05:12:00,
2013-05-28 01:17:00,69.6,61.6,30.00,SE,135,0.0,0.0,76,0.00,,,0.00,WUHU216HW,2013-05-28 05:17:00,
2013-05-28 01:22:00,69.6,61.6,30.00,SSE,158,0.0,0.0,76,0.00,,,0.00,WUHU216HW,2013-05-28 05:22:00,
2013-05-28 01:27:00,69.6,61.6,30.00,South,180,0.0,0.0,76,0.00,,,0.00,WUHU216HW,2013-05-28 05:27:00,
2013-05-28 01:32:00,69.6,61.6,30.00,SSE,158,0.0,0.0,76,0.00,,,0.00,WUHU216HW,2013-05-28 05:32:00,
2013-05-28 01:37:00,69.6,62.0,30.00,South,180,0.0,0.0,77,0.00,,,0.00,WUHU216HW,2013-05-28 05:37:00,
2013-05-28 01:42:00,69.6,62.0,30.00,SSW,203,0.0,0.0,77,0.00,,,0.00,WUHU216HW,2013-05-28 05:42:00,
2013-05-28 01:47:00,69.4,61.8,29.99,SSE,158,0.0,0.0,77,0.00,,,0.00,WUHU216HW,2013-05-28 05:47:00,
2013-05-28 01:52:00,69.4,61.8,29.99,SSE,158,0.0,0.0,77,0.00,,,0.00,WUHU216HW,2013-05-28 05:52:00,
2013-05-28 01:57:00,69.0,61.5,29.98,SSE,158,0.0,0.0,77,0.00,,,0.00,WUHU216HW,2013-05-28 05:57:00,
2013-05-28 02:02:00,69.0,61.5,29.99,South,180,0.0,0.0,77,0.00,,,0.00,WUHU216HW,2013-05-28 06:02:00,
2013-05-28 02:10:00,69.0,61.9,29.99,SSE,158,0.0,0.0,78,0.00,,,0.00,WUHU216HW,2013-05-28 06:10:00,
2013-05-28 02:15:00,68.9,61.7,29.99,SSE,158,0.0,0.0,78,0.00,,,0.00,WUHU216HW,2013-05-28 06:15:00,
2013-05-28 02:20:00,68.9,61.7,29.98,SE,135,0.0,0.0,78,0.00,,,0.00,WUHU216HW,2013-05-28 06:20:00,
2013-05-28 02:25:00,68.7,61.5,29.99,SSW,203,0.0,0.0,78,0.00,,,0.00,WUHU216HW,2013-05-28 06:25:00,
2013-05-28 02:30:00,68.7,61.5,29.99,South,180,0.0,0.0,78,0.00,,,0.00,WUHU216HW,2013-05-28 06:30:00,
2013-05-28 02:35:00,68.7,61.9,29.98,SSW,203,0.0,0.0,79,0.00,,,0.00,WUHU216HW,2013-05-28 06:35:00,
2013-05-28 02:40:00,68.7,61.9,29.99,SSE,158,0.0,0.0,79,0.00,,,0.00,WUHU216HW,2013-05-28 06:40:00,
2013-05-28 02:45:00,68.7,61.9,29.99,SSE,158,0.0,0.0,79,0.00,,,0.00,WUHU216HW,2013-05-28 06:45:00,
2013-05-28 02:50:00,68.5,61.8,29.99,SSW,203,0.0,0.0,79,0.00,,,0.00,WUHU216HW,2013-05-28 06:50:00,
2013-05-28 02:55:00,68.5,61.8,29.98,SSW,203,0.0,0.0,79,0.00,,,0.00,WUHU216HW,2013-05-28 06:55:00,
2013-05-28 03:00:00,68.3,61.6,29.98,South,180,0.0,0.0,79,0.00,,,0.00,WUHU216HW,2013-05-28 07:00:00,
2013-05-28 03:05:00,68.3,61.6,29.98,SSW,203,0.0,0.0,79,0.00,,,0.00,WUHU216HW,2013-05-28 07:05:00,
2013-05-28 03:10:00,68.1,61.4,29.98,SW,225,0.0,0.0,79,0.00,,,0.00,WUHU216HW,2013-05-28 07:10:00,
2013-05-28 03:15:00,68.1,61.4,29.98,SSW,203,0.0,0.0,79,0.00,,,0.00,WUHU216HW,2013-05-28 07:15:00,
2013-05-28 03:20:00,68.1,61.4,29.98,SE,135,0.0,0.0,79,0.00,,,0.00,WUHU216HW,2013-05-28 07:20:00,
2013-05-28 03:25:00,68.1,61.4,29.98,SSE,158,0.0,0.0,79,0.00,,,0.00,WUHU216HW,2013-05-28 07:25:00,
2013-05-28 03:30:00,68.1,61.4,29.98,SSE,158,0.0,0.0,79,0.00,,,0.00,WUHU216HW,2013-05-28 07:30:00,
2013-05-28 03:35:00,67.8,61.5,29.98,South,180,0.0,0.0,80,0.00,,,0.00,WUHU216HW,2013-05-28 07:35:00,
2013-05-28 03:40:00,67.8,61.5,29.98,South,180,0.0,0.0,80,0.00,,,0.00,WUHU216HW,2013-05-28 07:40:00,
2013-05-28 03:45:00,67.8,61.5,29.98,South,180,0.0,0.0,80,0.00,,,0.00,WUHU216HW,2013-05-28 07:45:00,
2013-05-28 03:50:00,67.8,61.5,29.98,South,180,0.0,0.0,80,0.00,,,0.00,WUHU216HW,2013-05-28 07:50:00,
2013-05-28 03:55:00,67.8,61.5,29.98,SSE,158,0.0,0.0,80,0.00,,,0.00,WUHU216HW,2013-05-28 07:55:00,
2013-05-28 04:00:00,67.8,61.5,29.98,South,180,0.0,0.0,80,0.00,,,0.00,WUHU216HW,2013-05-28 08:00:00,
2013-05-28 04:05:00,67.6,61.3,29.98,SE,135,0.0,0.0,80,0.00,,,0.00,WUHU216HW,2013-05-28 08:05:00,
2013-05-28 04:10:00,67.6,61.3,29.98,SSW,203,0.0,0.0,80,0.00,,,0.00,WUHU216HW,2013-05-28 08:10:00,
2013-05-28 04:15:00,67.6,61.3,29.98,South,180,0.0,0.0,80,0.00,,,0.00,WUHU216HW,2013-05-28 08:15:00,
2013-05-28 04:20:00,67.4,61.1,29.98,SSE,158,0.0,0.0,80,0.00,,,0.00,WUHU216HW,2013-05-28 08:20:00,
2013-05-28 04:25:00,67.2,60.9,29.97,SE,135,0.0,0.0,80,0.00,,,0.00,WUHU216HW,2013-05-28 08:25:00,
2013-05-28 04:30:00,67.2,61.3,29.97,SSW,203,0.0,0.0,81,0.00,,,0.00,WUHU216HW,2013-05-28 08:30:00,
2013-05-28 04:35:00,67.2,60.9,29.97,SSW,203,0.0,0.0,80,0.00,,,0.00,WUHU216HW,2013-05-28 08:35:00,
2013-05-28 04:40:00,67.2,60.9,29.97,South,180,0.0,0.0,80,0.00,,,0.00,WUHU216HW,2013-05-28 08:40:00,
2013-05-28 04:45:00,67.1,60.8,29.98,SSE,158,0.0,0.0,80,0.00,,,0.00,WUHU216HW,2013-05-28 08:45:00,
2013-05-28 04:50:00,67.1,61.1,29.98,SSW,203,0.0,0.0,81,0.00,,,0.00,WUHU216HW,2013-05-28 08:50:00,
2013-05-28 04:55:00,66.9,60.9,29.98,SSE,158,0.0,0.0,81,0.00,,,0.00,WUHU216HW,2013-05-28 08:55:00,
2013-05-28 05:00:00,66.9,60.9,29.98,WSW,248,0.0,0.0,81,0.00,,,0.00,WUHU216HW,2013-05-28 09:00:00,
2013-05-28 05:05:00,66.9,60.9,29.98,SSW,203,0.0,0.0,81,0.00,,,0.00,WUHU216HW,2013-05-28 09:05:00,
2013-05-28 05:10:00,66.9,60.9,29.98,South,180,0.0,0.0,81,0.00,,,0.00,WUHU216HW,2013-05-28 09:10:00,
2013-05-28 05:15:00,66.9,60.9,29.98,SSE,158,0.0,0.0,81,0.00,,,0.00,WUHU216HW,2013-05-28 09:15:00,
2013-05-28 05:20:00,66.9,60.9,29.98,South,180,0.0,0.0,81,0.00,,,0.00,WUHU216HW,2013-05-28 09:20:00,
2013-05-28 05:25:00,66.7,61.0,29.98,South,180,0.0,0.0,82,0.00,,,0.00,WUHU216HW,2013-05-28 09:25:00,
2013-05-28 05:29:00,66.7,61.0,29.99,South,180,0.0,0.0,82,0.00,,,0.00,WUHU216HW,2013-05-28 09:29:00,
2013-05-28 05:34:00,66.7,61.0,29.98,South,180,0.0,0.0,82,0.00,,,0.00,WUHU216HW,2013-05-28 09:34:00,
2013-05-28 05:39:00,66.7,61.0,29.98,SW,225,0.0,0.0,82,0.00,,,0.00,WUHU216HW,2013-05-28 09:39:00,
2013-05-28 05:44:00,66.7,61.0,29.99,SSW,203,0.0,0.0,82,0.00,,,0.00,WUHU216HW,2013-05-28 09:44:00,
2013-05-28 05:49:00,66.7,61.0,29.99,SSW,203,0.0,0.0,82,0.00,,,0.00,WUHU216HW,2013-05-28 09:49:00,
2013-05-28 05:54:00,66.7,61.0,30.00,South,180,0.0,0.0,82,0.00,,,0.00,WUHU216HW,2013-05-28 09:54:00,
2013-05-28 05:59:00,66.7,61.0,29.99,SW,225,0.0,0.0,82,0.00,,,0.00,WUHU216HW,2013-05-28 09:59:00,
2013-05-28 06:04:00,66.5,60.9,30.00,South,180,0.0,0.0,82,0.00,,,0.00,WUHU216HW,2013-05-28 10:04:00,
2013-05-28 06:09:00,66.5,60.9,30.00,South,180,0.0,0.0,82,0.00,,,0.00,WUHU216HW,2013-05-28 10:09:00,
2013-05-28 06:14:00,66.3,60.7,30.00,South,180,0.0,0.0,82,0.00,,,0.00,WUHU216HW,2013-05-28 10:14:00,
2013-05-28 06:19:00,66.3,60.7,30.00,South,180,0.0,0.0,82,0.00,,,0.00,WUHU216HW,2013-05-28 10:19:00,
2013-05-28 06:24:00,66.5,60.9,30.00,South,180,0.0,0.0,82,0.00,,,0.00,WUHU216HW,2013-05-28 10:24:00,
2013-05-28 06:29:00,66.5,60.9,30.00,SSE,158,0.0,0.0,82,0.00,,,0.00,WUHU216HW,2013-05-28 10:29:00,
2013-05-28 06:34:00,66.5,60.9,30.00,South,180,0.0,0.0,82,0.00,,,0.00,WUHU216HW,2013-05-28 10:34:00,
2013-05-28 06:39:00,66.5,60.9,30.00,South,180,0.0,0.0,82,0.00,,,0.00,WUHU216HW,2013-05-28 10:39:00,
2013-05-28 06:44:00,66.5,60.9,30.01,South,180,0.0,0.0,82,0.00,,,0.00,WUHU216HW,2013-05-28 10:44:00,
2013-05-28 06:49:00,66.3,60.7,30.01,SSE,158,0.0,0.0,82,0.00,,,0.00,WUHU216HW,2013-05-28 10:49:00,
2013-05-28 06:54:00,66.3,60.7,30.01,SSE,158,0.0,0.0,82,0.00,,,0.00,WUHU216HW,2013-05-28 10:54:00,
2013-05-28 06:59:00,66.5,60.9,30.01,SSE,158,0.0,0.0,82,0.00,,,0.00,WUHU216HW,2013-05-28 10:59:00,
2013-05-28 07:04:00,66.3,60.7,30.00,South,180,0.0,0.0,82,0.00,,,0.00,WUHU216HW,2013-05-28 11:04:00,
2013-05-28 07:09:00,66.3,60.7,30.01,SSW,203,0.0,0.0,82,0.00,,,0.00,WUHU216HW,2013-05-28 11:09:00,
2013-05-28 07:14:00,66.3,61.0,30.02,SSW,203,0.0,0.0,83,0.00,,,0.00,WUHU216HW,2013-05-28 11:14:00,
2013-05-28 07:19:00,66.5,61.2,30.02,NW,315,0.0,0.0,83,0.00,,,0.00,WUHU216HW,2013-05-28 11:19:00,
2013-05-28 07:24:00,66.5,61.2,30.03,SW,225,0.0,0.0,83,0.00,,,0.00,WUHU216HW,2013-05-28 11:24:00,
2013-05-28 07:29:00,66.5,61.2,30.02,SSW,203,0.0,0.0,83,0.00,,,0.00,WUHU216HW,2013-05-28 11:29:00,
2013-05-28 07:34:00,66.7,61.4,30.03,SW,225,0.0,0.0,83,0.00,,,0.00,WUHU216HW,2013-05-28 11:34:00,
2013-05-28 07:39:00,66.7,61.7,30.02,SW,225,0.0,0.0,84,0.00,,,0.00,WUHU216HW,2013-05-28 11:39:00,
2013-05-28 07:44:00,66.9,61.9,30.03,SSE,158,0.0,0.0,84,0.00,,,0.00,WUHU216HW,2013-05-28 11:44:00,
2013-05-28 07:49:00,66.9,61.9,30.03,WSW,248,0.0,0.0,84,0.00,,,0.00,WUHU216HW,2013-05-28 11:49:00,
2013-05-28 07:54:00,66.9,61.9,30.03,SSE,158,0.0,0.0,84,0.00,,,0.00,WUHU216HW,2013-05-28 11:54:00,
2013-05-28 07:59:00,66.9,61.9,30.03,SW,225,0.0,0.0,84,0.00,,,0.00,WUHU216HW,2013-05-28 11:59:00,
2013-05-28 08:04:00,67.1,62.0,30.03,SW,225,0.0,0.0,84,0.00,,,0.00,WUHU216HW,2013-05-28 12:04:00,
2013-05-28 08:09:00,67.2,62.2,30.03,SE,135,0.0,0.0,84,0.00,,,0.00,WUHU216HW,2013-05-28 12:09:00,
2013-05-28 08:14:00,67.2,62.2,30.03,West,270,0.0,0.0,84,0.00,,,0.00,WUHU216HW,2013-05-28 12:14:00,
2013-05-28 08:19:00,67.6,62.6,30.04,WNW,293,0.0,0.0,84,0.00,,,0.00,WUHU216HW,2013-05-28 12:19:00,
2013-05-28 08:24:00,67.8,62.8,30.04,North,0,0.0,0.0,84,0.00,,,0.00,WUHU216HW,2013-05-28 12:24:00,
2013-05-28 08:29:00,68.1,63.1,30.04,WNW,293,0.0,0.0,84,0.00,,,0.00,WUHU216HW,2013-05-28 12:29:00,
2013-05-28 08:34:00,68.3,62.9,30.04,NW,315,0.0,0.0,83,0.00,,,0.00,WUHU216HW,2013-05-28 12:34:00,
2013-05-28 08:39:00,68.5,63.1,30.04,WSW,248,0.0,0.0,83,0.00,,,0.00,WUHU216HW,2013-05-28 12:39:00,
2013-05-28 08:44:00,68.5,63.1,30.04,NNW,338,0.0,0.0,83,0.00,,,0.00,WUHU216HW,2013-05-28 12:44:00,
2013-05-28 08:49:00,68.9,63.3,30.04,West,270,0.0,0.0,83,0.00,,,0.00,WUHU216HW,2013-05-28 12:49:00,
2013-05-28 08:54:00,68.9,63.5,30.04,WSW,248,0.0,0.0,83,0.00,,,0.00,WUHU216HW,2013-05-28 12:54:00,
2013-05-28 08:59:00,69.4,63.8,30.04,SSE,158,0.0,0.0,83,0.00,,,0.00,WUHU216HW,2013-05-28 12:59:00,
2013-05-28 09:04:00,69.6,63.8,30.05,SSE,158,0.0,0.0,82,0.00,,,0.00,WUHU216HW,2013-05-28 13:04:00,
2013-05-28 09:09:00,69.6,63.8,30.04,NNW,338,0.0,0.0,82,0.00,,,0.00,WUHU216HW,2013-05-28 13:09:00,
2013-05-28 09:14:00,69.9,64.1,30.04,SW,225,0.0,0.0,82,0.00,,,0.00,WUHU216HW,2013-05-28 13:14:00,
2013-05-28 09:19:00,70.3,64.2,30.04,SW,225,0.0,0.0,81,0.00,,,0.00,WUHU216HW,2013-05-28 13:19:00,
2013-05-28 09:24:00,70.3,63.8,30.04,SW,225,0.0,0.0,80,0.00,,,0.00,WUHU216HW,2013-05-28 13:24:00,
2013-05-28 09:29:00,70.5,64.0,30.05,WNW,293,0.0,0.0,80,0.00,,,0.00,WUHU216HW,2013-05-28 13:29:00,
2013-05-28 09:34:00,70.8,64.4,30.05,SE,135,0.0,0.0,80,0.00,,,0.00,WUHU216HW,2013-05-28 13:34:00,
2013-05-28 09:39:00,71.2,64.3,30.05,NNE,23,0.0,0.0,79,0.00,,,0.00,WUHU216HW,2013-05-28 13:39:00,
2013-05-28 09:44:00,71.4,64.1,30.04,West,270,0.0,0.0,78,0.00,,,0.00,WUHU216HW,2013-05-28 13:44:00,
2013-05-28 09:49:00,71.7,64.5,30.04,North,0,0.0,0.0,78,0.00,,,0.00,WUHU216HW,2013-05-28 13:49:00,
2013-05-28 09:54:00,71.9,64.3,30.03,SW,225,0.0,0.0,77,0.00,,,0.00,WUHU216HW,2013-05-28 13:54:00,
2013-05-28 09:59:00,72.1,64.1,30.04,SSW,203,0.0,0.0,76,0.00,,,0.00,WUHU216HW,2013-05-28 13:59:00,
2013-05-28 10:04:00,72.3,64.3,30.03,SE,135,0.0,0.0,76,0.00,,,0.00,WUHU216HW,2013-05-28 14:04:00,
2013-05-28 10:09:00,72.6,64.6,30.04,SSW,203,0.0,0.0,76,0.00,,,0.00,WUHU216HW,2013-05-28 14:09:00,
2013-05-28 10:14:00,73.0,64.6,30.04,WNW,293,0.0,0.0,75,0.00,,,0.00,WUHU216HW,2013-05-28 14:14:00,
2013-05-28 10:19:00,73.2,64.4,30.04,NW,315,0.0,0.0,74,0.00,,,0.00,WUHU216HW,2013-05-28 14:19:00,
2013-05-28 10:24:00,73.2,64.4,30.04,West,270,0.0,0.0,74,0.00,,,0.00,WUHU216HW,2013-05-28 14:24:00,
2013-05-28 10:29:00,73.2,64.0,30.05,WSW,248,0.0,0.0,73,0.00,,,0.00,WUHU216HW,2013-05-28 14:29:00,
2013-05-28 10:34:00,73.2,64.4,30.05,SSE,158,0.0,0.0,74,0.00,,,0.00,WUHU216HW,2013-05-28 14:34:00,
2013-05-28 10:39:00,73.2,64.4,30.05,WNW,293,0.0,0.0,74,0.00,,,0.00,WUHU216HW,2013-05-28 14:39:00,
2013-05-28 10:44:00,73.2,64.4,30.05,WNW,293,0.0,0.0,74,0.00,,,0.00,WUHU216HW,2013-05-28 14:44:00,
2013-05-28 10:49:00,73.7,64.9,30.05,WNW,293,0.0,0.0,74,0.00,,,0.00,WUHU216HW,2013-05-28 14:49:00,
2013-05-28 10:54:00,73.9,65.1,30.05,SSW,203,0.0,0.0,74,0.00,,,0.00,WUHU216HW,2013-05-28 14:54:00,
2013-05-28 10:59:00,74.1,64.9,30.05,SSE,158,0.0,0.0,73,0.00,,,0.00,WUHU216HW,2013-05-28 14:59:00,
2013-05-28 11:04:00,74.1,64.9,30.05,ESE,113,0.0,0.0,73,0.00,,,0.00,WUHU216HW,2013-05-28 15:04:00,
2013-05-28 11:09:00,74.1,64.9,30.05,WSW,248,0.0,0.0,73,0.00,,,0.00,WUHU216HW,2013-05-28 15:09:00,
2013-05-28 11:14:00,73.9,64.7,30.05,NNW,338,0.0,0.0,73,0.00,,,0.00,WUHU216HW,2013-05-28 15:14:00,
2013-05-28 11:19:00,74.1,64.9,30.06,SSE,158,0.0,0.0,73,0.00,,,0.00,WUHU216HW,2013-05-28 15:19:00,
2013-05-28 11:24:00,74.1,64.7,30.06,West,270,0.0,0.0,72,0.00,,,0.00,WUHU216HW,2013-05-28 15:24:00,
2013-05-28 11:29:00,74.4,64.8,30.05,NNW,338,0.0,0.0,72,0.00,,,0.00,WUHU216HW,2013-05-28 15:29:00,
2013-05-28 11:34:00,75.0,65.3,30.05,South,180,0.0,0.0,72,0.00,,,0.00,WUHU216HW,2013-05-28 15:34:00,
2013-05-28 11:39:00,75.3,64.9,30.05,South,180,0.0,0.0,70,0.00,,,0.00,WUHU216HW,2013-05-28 15:39:00,
2013-05-28 11:44:00,75.5,64.6,30.05,SSE,158,0.0,0.0,69,0.00,,,0.00,WUHU216HW,2013-05-28 15:44:00,
2013-05-28 11:49:00,75.5,64.6,30.05,SSW,203,0.0,0.0,69,0.00,,,0.00,WUHU216HW,2013-05-28 15:49:00,
2013-05-28 11:54:00,75.7,65.3,30.05,South,180,0.0,0.0,70,0.00,,,0.00,WUHU216HW,2013-05-28 15:54:00,
2013-05-28 11:59:00,75.7,65.3,30.05,SW,225,0.0,0.0,70,0.00,,,0.00,WUHU216HW,2013-05-28 15:59:00,
2013-05-28 12:04:00,75.9,65.0,30.05,South,180,0.0,0.0,69,0.00,,,0.00,WUHU216HW,2013-05-28 16:04:00,
2013-05-28 12:09:00,76.1,64.7,30.04,SE,135,0.0,0.0,68,0.00,,,0.00,WUHU216HW,2013-05-28 16:09:00,
2013-05-28 12:14:00,76.2,64.9,30.05,South,180,0.0,0.0,68,0.00,,,0.00,WUHU216HW,2013-05-28 16:14:00,
2013-05-28 12:19:00,76.4,65.1,30.05,WSW,248,0.0,0.0,68,0.00,,,0.00,WUHU216HW,2013-05-28 16:19:00,
2013-05-28 12:24:00,76.6,65.3,30.04,SSW,203,0.0,0.0,68,0.00,,,0.00,WUHU216HW,2013-05-28 16:24:00,
2013-05-28 12:29:00,76.6,65.3,30.03,SSW,203,0.0,0.0,68,0.00,,,0.00,WUHU216HW,2013-05-28 16:29:00,
2013-05-28 12:34:00,76.8,65.0,30.03,SSE,158,0.0,0.0,67,0.00,,,0.00,WUHU216HW,2013-05-28 16:34:00,
2013-05-28 12:39:00,77.1,64.9,30.03,SE,135,0.0,0.0,66,0.00,,,0.00,WUHU216HW,2013-05-28 16:39:00,
2013-05-28 12:44:00,77.5,65.6,30.03,NW,315,0.0,0.0,67,0.00,,,0.00,WUHU216HW,2013-05-28 16:44:00,
2013-05-28 12:49:00,77.5,65.6,30.03,South,180,0.0,0.0,67,0.00,,,0.00,WUHU216HW,2013-05-28 16:49:00,
2013-05-28 12:54:00,77.7,65.4,30.03,WSW,248,0.0,0.0,66,0.00,,,0.00,WUHU216HW,2013-05-28 16:54:00,
2013-05-28 12:59:00,77.9,65.6,30.03,SSE,158,0.0,0.0,66,0.00,,,0.00,WUHU216HW,2013-05-28 16:59:00,
2013-05-28 13:04:00,78.4,65.6,30.03,SSE,158,0.0,0.0,65,0.00,,,0.00,WUHU216HW,2013-05-28 17:04:00,
2013-05-28 13:09:00,78.6,64.9,30.03,West,270,0.0,0.0,63,0.00,,,0.00,WUHU216HW,2013-05-28 17:09:00,
2013-05-28 13:13:00,78.9,65.7,30.03,SW,225,0.0,0.0,64,0.00,,,0.00,WUHU216HW,2013-05-28 17:13:00,
2013-05-28 13:18:00,78.9,65.7,30.03,South,180,0.0,0.0,64,0.00,,,0.00,WUHU216HW,2013-05-28 17:18:00,
2013-05-28 13:23:00,79.3,66.0,30.02,South,180,0.0,0.0,64,0.00,,,0.00,WUHU216HW,2013-05-28 17:23:00,
2013-05-28 13:28:00,79.7,66.4,30.02,SW,225,0.0,0.0,64,0.00,,,0.00,WUHU216HW,2013-05-28 17:28:00,
2013-05-28 13:33:00,80.0,66.7,30.02,SW,225,0.0,0.0,64,0.00,,,0.00,WUHU216HW,2013-05-28 17:33:00,
2013-05-28 13:38:00,80.2,66.4,30.01,SE,135,0.0,0.0,63,0.00,,,0.00,WUHU216HW,2013-05-28 17:38:00,
2013-05-28 13:43:00,80.4,66.6,30.02,SSW,203,0.0,0.0,63,0.00,,,0.00,WUHU216HW,2013-05-28 17:43:00,
2013-05-28 13:48:00,80.6,66.3,30.01,SSE,158,0.0,0.0,62,0.00,,,0.00,WUHU216HW,2013-05-28 17:48:00,
2013-05-28 13:53:00,80.7,66.9,30.01,SSE,158,0.0,0.0,63,0.00,,,0.00,WUHU216HW,2013-05-28 17:53:00,
2013-05-28 13:58:00,80.9,66.7,30.01,South,180,0.0,0.0,62,0.00,,,0.00,WUHU216HW,2013-05-28 17:58:00,
2013-05-28 14:03:00,81.1,66.4,30.00,SSE,158,0.0,0.0,61,0.00,,,0.00,WUHU216HW,2013-05-28 18:03:00,
2013-05-28 14:08:00,81.3,66.5,30.01,South,180,0.0,0.0,61,0.00,,,0.00,WUHU216HW,2013-05-28 18:08:00,
2013-05-28 14:13:00,81.3,66.1,30.01,SE,135,0.0,0.0,60,0.00,,,0.00,WUHU216HW,2013-05-28 18:13:00,
2013-05-28 14:18:00,81.3,66.7,30.00,SW,225,0.0,0.0,61,0.00,,,0.00,WUHU216HW,2013-05-28 18:18:00,
2013-05-28 14:23:00,81.5,66.7,30.00,South,180,0.0,0.0,61,0.00,,,0.00,WUHU216HW,2013-05-28 18:23:00,
2013-05-28 14:28:00,81.5,66.7,30.00,WSW,248,0.0,0.0,61,0.00,,,0.00,WUHU216HW,2013-05-28 18:28:00,
2013-05-28 14:33:00,81.5,66.7,30.00,WSW,248,0.0,0.0,61,0.00,,,0.00,WUHU216HW,2013-05-28 18:33:00,
2013-05-28 14:38:00,81.6,66.4,30.00,South,180,0.0,0.0,60,0.00,,,0.00,WUHU216HW,2013-05-28 18:38:00,
2013-05-28 14:43:00,81.6,66.9,29.99,SW,225,0.0,0.0,61,0.00,,,0.00,WUHU216HW,2013-05-28 18:43:00,
2013-05-28 14:48:00,81.8,67.5,29.99,South,180,0.0,0.0,62,0.00,,,0.00,WUHU216HW,2013-05-28 18:48:00,
2013-05-28 14:53:00,82.0,67.6,29.99,SSW,203,0.0,0.0,62,0.00,,,0.00,WUHU216HW,2013-05-28 18:53:00,
2013-05-28 14:58:00,82.0,67.6,29.99,WSW,248,0.0,0.0,62,0.00,,,0.00,WUHU216HW,2013-05-28 18:58:00,
2013-05-28 15:03:00,82.2,67.8,29.99,SSE,158,0.0,0.0,62,0.00,,,0.00,WUHU216HW,2013-05-28 19:03:00,
2013-05-28 15:08:00,82.0,67.6,29.99,SSW,203,0.0,0.0,62,0.00,,,0.00,WUHU216HW,2013-05-28 19:08:00,
2013-05-28 15:13:00,82.2,67.8,29.99,SW,225,0.0,0.0,62,0.00,,,0.00,WUHU216HW,2013-05-28 19:13:00,
2013-05-28 15:18:00,82.2,67.3,29.99,SW,225,0.0,0.0,61,0.00,,,0.00,WUHU216HW,2013-05-28 19:18:00,
2013-05-28 15:23:00,82.4,67.5,29.99,SSW,203,0.0,0.0,61,0.00,,,0.00,WUHU216HW,2013-05-28 19:23:00,
2013-05-28 15:28:00,82.5,67.7,29.99,SSW,203,0.0,0.0,61,0.00,,,0.00,WUHU216HW,2013-05-28 19:28:00,
2013-05-28 15:33:00,82.5,68.1,29.99,WSW,248,0.0,0.0,62,0.00,,,0.00,WUHU216HW,2013-05-28 19:33:00,
2013-05-28 15:38:00,82.5,67.7,29.99,SW,225,0.0,0.0,61,0.00,,,0.00,WUHU216HW,2013-05-28 19:38:00,
2013-05-28 15:43:00,82.2,66.9,29.99,SE,135,0.0,0.0,60,0.00,,,0.00,WUHU216HW,2013-05-28 19:43:00,
2013-05-28 15:48:00,82.0,67.2,29.98,SW,225,0.0,0.0,61,0.00,,,0.00,WUHU216HW,2013-05-28 19:48:00,
2013-05-28 15:53:00,82.0,68.1,29.98,South,180,0.0,0.0,63,0.00,,,0.00,WUHU216HW,2013-05-28 19:53:00,
2013-05-28 15:58:00,82.0,67.2,29.99,South,180,0.0,0.0,61,0.00,,,0.00,WUHU216HW,2013-05-28 19:58:00,
2013-05-28 16:03:00,82.0,67.6,29.98,SW,225,0.0,0.0,62,0.00,,,0.00,WUHU216HW,2013-05-28 20:03:00,
2013-05-28 16:08:00,82.2,66.9,29.98,SSW,203,0.0,0.0,60,0.00,,,0.00,WUHU216HW,2013-05-28 20:08:00,
2013-05-28 16:13:00,82.0,67.2,29.98,SSE,158,0.0,0.0,61,0.00,,,0.00,WUHU216HW,2013-05-28 20:13:00,
2013-05-28 16:18:00,82.5,67.7,29.97,SSE,158,0.0,0.0,61,0.00,,,0.00,WUHU216HW,2013-05-28 20:18:00,
2013-05-28 16:23:00,82.7,67.4,29.97,South,180,0.0,0.0,60,0.00,,,0.00,WUHU216HW,2013-05-28 20:23:00,
2013-05-28 16:28:00,82.5,67.2,29.98,SSW,203,0.0,0.0,60,0.00,,,0.00,WUHU216HW,2013-05-28 20:28:00,
2013-05-28 16:33:00,82.0,66.7,29.97,SSW,203,0.0,0.0,60,0.00,,,0.00,WUHU216HW,2013-05-28 20:33:00,
2013-05-28 16:38:00,82.2,66.9,29.97,SSW,203,0.0,0.0,60,0.00,,,0.00,WUHU216HW,2013-05-28 20:38:00,
2013-05-28 16:43:00,82.5,67.7,29.97,SSW,203,0.0,0.0,61,0.00,,,0.00,WUHU216HW,2013-05-28 20:43:00,
2013-05-28 16:48:00,82.9,68.0,29.96,SE,135,0.0,0.0,61,0.00,,,0.00,WUHU216HW,2013-05-28 20:48:00,
2013-05-28 16:53:00,82.9,68.0,29.96,SSW,203,0.0,0.0,61,0.00,,,0.00,WUHU216HW,2013-05-28 20:53:00,
2013-05-28 16:58:00,82.7,67.4,29.96,South,180,0.0,0.0,60,0.00,,,0.00,WUHU216HW,2013-05-28 20:58:00,
2013-05-28 17:03:00,82.7,67.4,29.96,South,180,0.0,0.0,60,0.00,,,0.00,WUHU216HW,2013-05-28 21:03:00,
2013-05-28 17:08:00,82.5,67.2,29.96,SE,135,0.0,0.0,60,0.00,,,0.00,WUHU216HW,2013-05-28 21:08:00,
2013-05-28 17:13:00,82.7,67.4,29.96,SSW,203,0.0,0.0,60,0.00,,,0.00,WUHU216HW,2013-05-28 21:13:00,
2013-05-28 17:18:00,82.9,67.6,29.96,SSE,158,0.0,0.0,60,0.00,,,0.00,WUHU216HW,2013-05-28 21:18:00,
2013-05-28 17:23:00,82.9,67.6,29.96,ESE,113,0.0,0.0,60,0.00,,,0.00,WUHU216HW,2013-05-28 21:23:00,
2013-05-28 17:28:00,82.9,67.6,29.96,SSE,158,0.0,0.0,60,0.00,,,0.00,WUHU216HW,2013-05-28 21:28:00,
2013-05-28 17:33:00,82.7,67.4,29.96,ESE,113,0.0,0.0,60,0.00,,,0.00,WUHU216HW,2013-05-28 21:33:00,
2013-05-28 17:38:00,82.7,67.4,29.96,SE,135,0.0,0.0,60,0.00,,,0.00,WUHU216HW,2013-05-28 21:38:00,
2013-05-28 17:43:00,82.7,67.9,29.96,SSW,203,0.0,0.0,61,0.00,,,0.00,WUHU216HW,2013-05-28 21:43:00,
2013-05-28 17:48:00,82.9,68.0,29.96,WSW,248,0.0,0.0,61,0.00,,,0.00,WUHU216HW,2013-05-28 21:48:00,
2013-05-28 17:53:00,82.9,68.0,29.96,SSE,158,0.0,0.0,61,0.00,,,0.00,WUHU216HW,2013-05-28 21:53:00,
2013-05-28 17:58:00,82.9,67.6,29.96,SW,225,0.0,0.0,60,0.00,,,0.00,WUHU216HW,2013-05-28 21:58:00,
2013-05-28 18:03:00,82.9,67.6,29.96,SW,225,0.0,0.0,60,0.00,,,0.00,WUHU216HW,2013-05-28 22:03:00,
2013-05-28 18:08:00,82.5,67.2,29.96,SSW,203,0.0,0.0,60,0.00,,,0.00,WUHU216HW,2013-05-28 22:08:00,
2013-05-28 18:13:00,82.2,66.4,29.96,SSW,203,0.0,0.0,59,0.00,,,0.00,WUHU216HW,2013-05-28 22:13:00,
2013-05-28 18:18:00,82.0,66.2,29.96,South,180,0.0,0.0,59,0.00,,,0.00,WUHU216HW,2013-05-28 22:18:00,
2013-05-28 18:23:00,82.0,66.2,29.96,South,180,0.0,0.0,59,0.00,,,0.00,WUHU216HW,2013-05-28 22:23:00,
2013-05-28 18:28:00,81.8,66.0,29.96,SSE,158,0.0,0.0,59,0.00,,,0.00,WUHU216HW,2013-05-28 22:28:00,
2013-05-28 18:33:00,81.6,65.9,29.95,SE,135,0.0,0.0,59,0.00,,,0.00,WUHU216HW,2013-05-28 22:33:00,
2013-05-28 18:38:00,81.6,66.4,29.95,SSE,158,0.0,0.0,60,0.00,,,0.00,WUHU216HW,2013-05-28 22:38:00,
2013-05-28 18:43:00,81.5,66.2,29.95,SSE,158,0.0,0.0,60,0.00,,,0.00,WUHU216HW,2013-05-28 22:43:00,
2013-05-28 18:48:00,81.5,66.2,29.95,South,180,0.0,0.0,60,0.00,,,0.00,WUHU216HW,2013-05-28 22:48:00,
2013-05-28 18:53:00,81.5,66.7,29.95,SE,135,0.0,0.0,61,0.00,,,0.00,WUHU216HW,2013-05-28 22:53:00,
2013-05-28 18:58:00,81.3,66.5,29.95,SSW,203,0.0,0.0,61,0.00,,,0.00,WUHU216HW,2013-05-28 22:58:00,
2013-05-28 19:03:00,81.3,66.1,29.96,SSW,203,0.0,0.0,60,0.00,,,0.00,WUHU216HW,2013-05-28 23:03:00,
2013-05-28 19:08:00,81.1,65.9,29.96,South,180,0.0,0.0,60,0.00,,,0.00,WUHU216HW,2013-05-28 23:08:00,
2013-05-28 19:13:00,80.9,65.8,29.96,South,180,0.0,0.0,60,0.00,,,0.00,WUHU216HW,2013-05-28 23:13:00,
2013-05-28 19:18:00,80.6,65.9,29.96,SSE,158,0.0,0.0,61,0.00,,,0.00,WUHU216HW,2013-05-28 23:18:00,
2013-05-28 19:23:00,80.2,65.5,29.96,South,180,0.0,0.0,61,0.00,,,0.00,WUHU216HW,2013-05-28 23:23:00,
2013-05-28 19:28:00,80.0,65.4,29.96,South,180,0.0,0.0,61,0.00,,,0.00,WUHU216HW,2013-05-28 23:28:00,
2013-05-28 19:33:00,79.8,65.2,29.96,South,180,0.0,0.0,61,0.00,,,0.00,WUHU216HW,2013-05-28 23:33:00,
2013-05-28 19:38:00,79.7,65.1,29.96,SW,225,0.0,0.0,61,0.00,,,0.00,WUHU216HW,2013-05-28 23:38:00,
2013-05-28 19:43:00,79.5,64.9,29.96,SSE,158,0.0,0.0,61,0.00,,,0.00,WUHU216HW,2013-05-28 23:43:00,
2013-05-28 19:48:00,79.5,64.9,29.97,South,180,0.0,0.0,61,0.00,,,0.00,WUHU216HW,2013-05-28 23:48:00,
2013-05-28 19:53:00,79.3,65.2,29.96,SSE,158,0.0,0.0,62,0.00,,,0.00,WUHU216HW,2013-05-28 23:53:00,
2013-05-28 19:58:00,78.9,64.8,29.96,SSE,158,0.0,0.0,62,0.00,,,0.00,WUHU216HW,2013-05-28 23:58:00,
2013-05-28 20:03:00,78.9,65.3,29.97,SSE,158,0.0,0.0,63,0.00,,,0.00,WUHU216HW,2013-05-29 00:03:00,
2013-05-28 20:08:00,78.6,64.9,29.97,SSE,158,0.0,0.0,63,0.00,,,0.00,WUHU216HW,2013-05-29 00:08:00,
2013-05-28 20:13:00,78.4,64.7,29.97,SSE,158,0.0,0.0,63,0.00,,,0.00,WUHU216HW,2013-05-29 00:13:00,
2013-05-28 20:18:00,78.0,64.4,29.97,SSE,158,0.0,0.0,63,0.00,,,0.00,WUHU216HW,2013-05-29 00:18:00,
2013-05-28 20:23:00,77.9,64.7,29.97,SSE,158,0.0,0.0,64,0.00,,,0.00,WUHU216HW,2013-05-29 00:23:00,
2013-05-28 20:28:00,77.5,64.3,29.97,SSE,158,0.0,0.0,64,0.00,,,0.00,WUHU216HW,2013-05-29 00:28:00,
2013-05-28 20:33:00,77.5,64.8,29.96,SSE,158,0.0,0.0,65,0.00,,,0.00,WUHU216HW,2013-05-29 00:33:00,
2013-05-28 20:38:00,77.3,65.0,29.96,SSE,158,0.0,0.0,66,0.00,,,0.00,WUHU216HW,2013-05-29 00:38:00,
2013-05-28 20:43:00,77.1,64.9,29.97,SSE,158,0.0,0.0,66,0.00,,,0.00,WUHU216HW,2013-05-29 00:43:00,
2013-05-28 20:48:00,76.8,65.0,29.97,SSE,158,0.0,0.0,67,0.00,,,0.00,WUHU216HW,2013-05-29 00:48:00,
2013-05-28 20:53:00,76.6,64.8,29.97,SSE,158,0.0,0.0,67,0.00,,,0.00,WUHU216HW,2013-05-29 00:53:00,
2013-05-28 20:58:00,76.2,64.5,29.96,SSE,158,0.0,0.0,67,0.00,,,0.00,WUHU216HW,2013-05-29 00:58:00,
2013-05-28 21:03:00,75.9,64.5,29.97,SSE,158,0.0,0.0,68,0.00,,,0.00,WUHU216HW,2013-05-29 01:03:00,
2013-05-28 21:08:00,75.9,64.4,29.96,SSE,158,0.0,0.0,68,0.00,,,0.00,WUHU216HW,2013-05-29 01:08:00,
2013-05-28 21:13:00,75.5,64.2,29.96,SSE,158,0.0,0.0,68,0.00,,,0.00,WUHU216HW,2013-05-29 01:13:00,
2013-05-28 21:18:00,75.3,64.0,29.96,SSE,158,0.0,0.0,68,0.00,,,0.00,WUHU216HW,2013-05-29 01:18:00,
2013-05-28 21:22:00,75.2,63.8,29.96,SSE,158,0.0,0.0,68,0.00,,,0.00,WUHU216HW,2013-05-29 01:22:00,
2013-05-28 21:27:00,75.0,63.7,29.96,SSE,158,0.0,0.0,68,0.00,,,0.00,WUHU216HW,2013-05-29 01:27:00,
2013-05-28 21:32:00,75.0,64.1,29.96,SSE,158,0.0,0.0,69,0.00,,,0.00,WUHU216HW,2013-05-29 01:32:00,
2013-05-28 21:37:00,74.8,63.9,29.96,South,180,0.0,0.0,69,0.00,,,0.00,WUHU216HW,2013-05-29 01:37:00,
2013-05-28 21:42:00,74.8,63.9,29.96,South,180,0.0,0.0,69,0.00,,,0.00,WUHU216HW,2013-05-29 01:42:00,
2013-05-28 21:47:00,74.6,64.2,29.96,South,180,0.0,0.0,70,0.00,,,0.00,WUHU216HW,2013-05-29 01:47:00,
2013-05-28 21:52:00,74.4,64.1,29.97,South,180,0.0,0.0,70,0.00,,,0.00,WUHU216HW,2013-05-29 01:52:00,
2013-05-28 21:57:00,74.3,64.3,29.97,SSE,158,0.0,0.0,71,0.00,,,0.00,WUHU216HW,2013-05-29 01:57:00,
2013-05-28 22:02:00,74.3,63.9,29.98,SW,225,0.0,0.0,70,0.00,,,0.00,WUHU216HW,2013-05-29 02:02:00,
2013-05-28 22:07:00,74.4,64.1,29.98,SSE,158,0.0,0.0,70,0.00,,,0.00,WUHU216HW,2013-05-29 02:07:00,
2013-05-28 22:12:00,74.4,64.1,29.97,SSE,158,0.0,0.0,70,0.00,,,0.00,WUHU216HW,2013-05-29 02:12:00,
2013-05-28 22:17:00,74.4,64.1,29.98,SSW,203,0.0,0.0,70,0.00,,,0.00,WUHU216HW,2013-05-29 02:17:00,
2013-05-28 22:22:00,74.6,64.2,29.98,SSE,158,0.0,0.0,70,0.00,,,0.00,WUHU216HW,2013-05-29 02:22:00,
2013-05-28 22:27:00,74.4,64.1,29.98,SSE,158,0.0,0.0,70,0.00,,,0.00,WUHU216HW,2013-05-29 02:27:00,
2013-05-28 22:32:00,74.4,64.1,29.98,SSE,158,0.0,0.0,70,0.00,,,0.00,WUHU216HW,2013-05-29 02:32:00,
2013-05-28 22:37:00,74.4,64.1,29.98,SSW,203,0.0,0.0,70,0.00,,,0.00,WUHU216HW,2013-05-29 02:37:00,
2013-05-28 22:42:00,74.4,64.1,29.98,South,180,0.0,0.0,70,0.00,,,0.00,WUHU216HW,2013-05-29 02:42:00,
2013-05-28 22:47:00,74.3,64.3,29.98,SSE,158,0.0,0.0,71,0.00,,,0.00,WUHU216HW,2013-05-29 02:47:00,
2013-05-28 22:52:00,74.3,64.3,29.98,South,180,0.0,0.0,71,0.00,,,0.00,WUHU216HW,2013-05-29 02:52:00,
2013-05-28 22:57:00,74.1,64.1,29.99,SSW,203,0.0,0.0,71,0.00,,,0.00,WUHU216HW,2013-05-29 02:57:00,
2013-05-28 23:02:00,74.1,64.1,29.99,SSE,158,0.0,0.0,71,0.00,,,0.00,WUHU216HW,2013-05-29 03:02:00,
2013-05-28 23:07:00,73.9,64.0,29.99,SSW,203,0.0,0.0,71,0.00,,,0.00,WUHU216HW,2013-05-29 03:07:00,
2013-05-28 23:12:00,73.9,63.6,29.99,South,180,0.0,0.0,70,0.00,,,0.00,WUHU216HW,2013-05-29 03:12:00,
2013-05-28 23:17:00,73.7,63.4,29.99,SSW,203,0.0,0.0,70,0.00,,,0.00,WUHU216HW,2013-05-29 03:17:00,
2013-05-28 23:22:00,73.7,63.4,29.99,SSE,158,0.0,0.0,70,0.00,,,0.00,WUHU216HW,2013-05-29 03:22:00,
2013-05-28 23:27:00,73.5,63.3,29.99,SW,225,0.0,0.0,70,0.00,,,0.00,WUHU216HW,2013-05-29 03:27:00,
2013-05-28 23:32:00,73.4,63.1,29.98,South,180,0.0,0.0,70,0.00,,,0.00,WUHU216HW,2013-05-29 03:32:00,
2013-05-28 23:37:00,73.2,62.9,29.98,SSW,203,0.0,0.0,70,0.00,,,0.00,WUHU216HW,2013-05-29 03:37:00,
2013-05-28 23:42:00,73.2,62.9,29.98,SSE,158,0.0,0.0,70,0.00,,,0.00,WUHU216HW,2013-05-29 03:42:00,
2013-05-28 23:47:00,73.0,62.7,29.98,South,180,0.0,0.0,70,0.00,,,0.00,WUHU216HW,2013-05-29 03:47:00,
2013-05-28 23:52:00,72.8,62.6,29.98,SSE,158,0.0,0.0,70,0.00,,,0.00,WUHU216HW,2013-05-29 03:52:00,
2013-05-28 23:57:00,72.6,62.4,29.98,SSE,158,0.0,0.0,70,0.00,,,0.00,WUHU216HW,2013-05-29 03:57:00,